This demonstration page uses our WeatherBlox Daily Observations layout. Learn more.

Left ArrowRight Arrow

39.12711, -84.51439

Hourly Observations for June 1, 2021

Temp ( °F °C ) Dew Point ( °F °C ) Humidity (%) Winds ( mph kmh ) Pressure ( in mb ) Visibility ( mi km ) Precip ( " mm )
12:53 am 00:53 Clear 55 12.8 52 11.1 90 90 N N/A 30.22 1023 10 16 N/A
1:53 am 01:53 Clear 55 12.8 53 11.7 93 93 N N/A 30.21 1023 10 16 N/A
2:53 am 02:53 Clear 54 12.2 53 11.7 97 97 N N/A 30.22 1023 10 16 N/A
3:53 am 03:53 Clear 54 12.2 52 11.1 93 93 N N/A 30.22 1023 9 14 N/A
4:53 am 04:53 Clear 55 12.8 53 11.7 93 93 N N/A 30.22 1023 10 16 N/A
5:53 am 05:53 Clear 55 12.8 53 11.7 93 93 N N/A 30.22 1024 10 16 N/A
6:53 am 06:53 Sunny 54 12.2 53 11.7 97 97 N N/A 30.23 1024 10 16 N/A
7:53 am 07:53 Sunny 57 13.9 54 12.2 90 90 N N/A 30.24 1024 9 14 N/A
8:53 am 08:53 Sunny 60 15.6 56 13.3 86 86 N N/A 30.24 1024 10 16 N/A
9:53 am 09:53 Sunny 64 17.8 57 13.9 78 78 N N/A 30.24 1024 10 16 N/A
10:53 am 10:53 Sunny 68 20 55 12.8 63 63 N N/A 30.24 1024 10 16 N/A
11:53 am 11:53 Sunny 72 22.2 58 14.4 61 61 NNW 3 6 30.23 1024 10 16 N/A
12:53 pm 12:53 Sunny 73 22.8 55 12.8 53 53 N N/A 30.22 1023 10 16 N/A
1:53 pm 13:53 Partly Cloudy 75 23.9 54 12.2 48 48 N N/A 30.20 1023 10 16 N/A
2:53 pm 14:53 Sunny 75 23.9 55 12.8 50 50 SSE 7 11 30.19 1022 10 16 N/A
3:53 pm 15:53 Mostly Sunny 74 23.3 55 12.8 52 52 S 9 15 30.18 1022 10 16 N/A
4:53 pm 16:53 Sunny 74 23.3 56 13.3 54 54 N N/A 30.17 1022 10 16 N/A
5:53 pm 17:53 Sunny 74 23.3 60 15.6 62 62 N N/A 30.16 1022 10 16 N/A
6:53 pm 18:53 Mostly Cloudy 72 22.2 62 16.7 71 71 N N/A 30.16 1021 10 16 N/A
7:53 pm 19:53 Cloudy 69 20.6 63 17.2 81 81 SSW 7 11 30.15 1021 10 16 N/A
8:53 pm 20:53 Cloudy 69 20.6 58 14.4 68 68 N N/A 30.15 1021 10 16 N/A
9:53 pm 21:53 Cloudy 65 18.3 61 16.1 87 87 N N/A 30.15 1021 10 16 0.00 0.00
10:53 pm 22:53 Cloudy with Light Rain 64 17.8 61 16.1 90 90 N N/A 30.16 1021 10 16 0.00 0.00
11:53 pm 23:53 Cloudy with Light Rain 64 17.8 61 16.1 90 90 N N/A 30.15 1021 10 16 0.00 0.00

Powered by AerisWeather